Location: Godiavel Galaoual
(15.2485°N, 12.6604°W)
Time: 02:15:36
(UTC+00:00)

Transit 4A - Pass Details

Date: 18 June 2021
Orbit: 872 x 972 km, 66.8° (Epoch: 29 July)

Event Time Altitude Azimuth Distance (km) Brightness Sun altitude
Rises 22:03:18 0° 304° (NW) 3,472 11.9 -33.5°
Reaches altitude 10° 22:07:45 10° 272° (W) 2,551 10.7 -34.3°
Maximum altitude 22:09:35 11° 254° (WSW) 2,454 10.4 -34.6°
Drops below altitude 10° 22:11:26 10° 235° (SW) 2,568 10.3 -34.9°
Enters shadow 22:11:29 10° 235° (SW) 2,574 10.3 -34.9°
Sets 22:16:01 0° 204° (SSW) 3,535 - -35.7°
